Weather History for Auburn, AL

Change the Weather History Date:

Friday, October 18, 2013

  Actual Average Record
Temperature  
Mean Temperature 65 °F -  
Max Temperature 72 °F - 86 °F (2006)
Min Temperature 57 °F - 31 °F (1977)
Degree Days  
Heating Degree Days 0    
Month to date heating degree days 1  
Since 1 July heating degree days 1  
Cooling Degree Days 0    
Month to date cooling degree days 64  
Year to date cooling degree days 1626  
Growing Degree Days 14 (Base 50)    
Moisture  
Dew Point 54 °F    
Average Humidity 71    
Maximum Humidity 88    
Minimum Humidity 49    
Precipitation  
Precipitation 0.00 in - 1.90 in (2001)
Month to date precipitation 0.42  
Year to date precipitation 39.38  
Sea Level Pressure  
Sea Level Pressure 30.00 in    
Wind  
Wind Speed 5 mph (North)    
Max Wind Speed 10 mph    
Max Gust Speed -    
Visibility 10 miles    
Events      
T = Trace of Precipitation, MM = Missing Value Source: NWS Daily Summary

Daily Weather History Graph

Daily Weather History Graph

Search for Another Location

Airport:

Trip Planner

Search our weather history database for the weather conditions in past years. The results will help you decide how hot, cold, wet, or windy it might be!

Date:

Astronomy

Oct. 18, 2013 Rise Set
Actual Time 6:48 AM CDT 6:05 PM CDT
Civil Twilight 6:23 AM CDT 6:29 PM CDT
Nautical Twilight 5:54 AM CDT 6:58 PM CDT
Astronomical Twilight 5:26 AM CDT 7:27 PM CDT
Moon 5:55 PM CDT (10/18) 6:22 AM CDT (10/18)
Length of Visible Light 12h 06m
Length of Day
11h 16m
Full, 100% of the Moon is Illuminated
Oct 18
Full
Oct 18
Full
Oct 26
Last Quarter
Nov 3
New
Nov 9
First Quarter

Hourly Weather History & Observations

Time (CDT) Temp. Dew Point Humidity Pressure Visibility Wind Dir Wind Speed Gust Speed Precip Events Conditions
12:15 AM 62.6 °F 59.0 °F 88% 29.97 in 10.0 mi North 6.9 mph - N/A   Overcast
12:35 AM 62.6 °F 59.0 °F 88% 29.97 in 10.0 mi North 4.6 mph - N/A   Overcast
12:55 AM 62.6 °F 59.0 °F 88% 29.97 in 10.0 mi North 4.6 mph - N/A   Overcast
1:15 AM 62.6 °F 59.0 °F 88% 29.97 in 10.0 mi NNE 4.6 mph - N/A   Overcast
1:35 AM 62.6 °F 57.2 °F 82% 29.97 in 10.0 mi North 6.9 mph - N/A   Overcast
1:55 AM 62.6 °F 57.2 °F 82% 29.97 in 10.0 mi NNE 9.2 mph - N/A   Overcast
2:15 AM 60.8 °F 57.2 °F 88% 29.97 in 10.0 mi North 5.8 mph - N/A   Mostly Cloudy
2:35 AM 60.8 °F 57.2 °F 88% 29.97 in 10.0 mi NNE 5.8 mph - N/A   Mostly Cloudy
2:55 AM 60.8 °F 57.2 °F 88% 29.97 in 10.0 mi NNE 5.8 mph - N/A   Overcast
3:15 AM 60.8 °F 57.2 °F 88% 29.97 in 10.0 mi NNE 3.5 mph - N/A   Overcast
3:35 AM 60.8 °F 57.2 °F 88% 29.97 in 10.0 mi NNE 4.6 mph - N/A   Overcast
3:55 AM 60.8 °F 57.2 °F 88% 29.98 in 10.0 mi NNE 3.5 mph - N/A   Overcast
4:15 AM 60.8 °F 57.2 °F 88% 29.99 in 10.0 mi NE 3.5 mph - N/A   Overcast
4:35 AM 60.8 °F 55.4 °F 82% 29.99 in 10.0 mi North 4.6 mph - N/A   Overcast
4:55 AM 60.8 °F 55.4 °F 82% 29.99 in 10.0 mi NNE 5.8 mph - N/A   Overcast
5:15 AM 60.8 °F 55.4 °F 82% 30.00 in 10.0 mi NNE 4.6 mph - N/A   Overcast
5:35 AM 60.8 °F 55.4 °F 82% 30.00 in 10.0 mi NNE 4.6 mph - N/A   Overcast
5:55 AM 60.8 °F 55.4 °F 82% 30.00 in 10.0 mi North 4.6 mph - N/A   Overcast
6:15 AM 59.0 °F 53.6 °F 82% 30.01 in 10.0 mi North 8.1 mph - N/A   Overcast
6:35 AM 59.0 °F 53.6 °F 82% 30.01 in 10.0 mi North 8.1 mph - N/A   Overcast
6:55 AM 59.0 °F 51.8 °F 77% 30.02 in 10.0 mi North 4.6 mph - N/A   Overcast
7:15 AM 57.2 °F 51.8 °F 82% 30.03 in 10.0 mi North 6.9 mph - N/A   Overcast
7:35 AM 57.2 °F 51.8 °F 82% 30.04 in 10.0 mi North 6.9 mph - N/A   Overcast
7:55 AM 57.2 °F 51.8 °F 82% 30.04 in 10.0 mi North 6.9 mph - N/A   Overcast
8:15 AM 59.0 °F 51.8 °F 77% 30.04 in 10.0 mi North 6.9 mph - N/A   Overcast
8:35 AM 60.8 °F 53.6 °F 77% 30.04 in 10.0 mi North 9.2 mph - N/A   Mostly Cloudy
8:55 AM 62.6 °F 53.6 °F 72% 30.04 in 10.0 mi NNE 9.2 mph - N/A   Partly Cloudy
9:15 AM 62.6 °F 53.6 °F 72% 30.04 in 10.0 mi North 8.1 mph - N/A   Clear
9:35 AM 62.6 °F 53.6 °F 72% 30.05 in 10.0 mi North 6.9 mph - N/A   Clear
9:55 AM 64.4 °F 53.6 °F 68% 30.05 in 10.0 mi North 10.4 mph - N/A   Clear
10:15 AM 64.4 °F 51.8 °F 64% 30.05 in 10.0 mi NNE 5.8 mph - N/A   Clear
10:35 AM 64.4 °F 53.6 °F 68% 30.05 in 10.0 mi North 3.5 mph - N/A   Clear
10:55 AM 66.2 °F 53.6 °F 64% 30.05 in 10.0 mi NW 6.9 mph - N/A   Clear
11:15 AM 64.4 °F 51.8 °F 64% 30.05 in 10.0 mi NW 5.8 mph - N/A   Partly Cloudy
11:35 AM 66.2 °F 51.8 °F 60% 30.04 in 10.0 mi Calm Calm - N/A   Partly Cloudy
11:55 AM 66.2 °F 51.8 °F 60% 30.04 in 10.0 mi West 6.9 mph - N/A   Clear
12:15 PM 66.2 °F 51.8 °F 60% 30.03 in 10.0 mi WNW 3.5 mph - N/A   Clear
12:35 PM 68.0 °F 51.8 °F 56% 30.02 in 10.0 mi WSW 3.5 mph - N/A   Clear
12:55 PM 69.8 °F 51.8 °F 53% 30.02 in 10.0 mi NE 3.5 mph - N/A   Clear
1:15 PM 68.0 °F 51.8 °F 56% 30.00 in 10.0 mi NNW 6.9 mph - N/A   Clear
1:35 PM 69.8 °F 51.8 °F 53% 30.00 in 10.0 mi Calm Calm - N/A   Clear
1:55 PM 69.8 °F 51.8 °F 53% 29.99 in 10.0 mi North 5.8 mph - N/A   Clear
2:15 PM 69.8 °F 51.8 °F 53% 29.99 in 10.0 mi Calm Calm - N/A   Clear
2:35 PM 69.8 °F 50.0 °F 49% 29.98 in 10.0 mi Calm Calm - N/A   Clear
2:55 PM 69.8 °F 51.8 °F 53% 29.98 in 10.0 mi Calm Calm - N/A   Clear
3:15 PM 69.8 °F 51.8 °F 53% 29.98 in 10.0 mi WNW 5.8 mph - N/A   Clear
3:35 PM 69.8 °F 51.8 °F 53% 29.98 in 10.0 mi Calm Calm - N/A   Clear
3:55 PM 71.6 °F 51.8 °F 50% 29.97 in 10.0 mi WNW 4.6 mph - N/A   Clear
4:15 PM 71.6 °F 51.8 °F 50% 29.97 in 10.0 mi WNW 4.6 mph - N/A   Clear
4:35 PM 69.8 °F 51.8 °F 53% 29.97 in 10.0 mi NNW 5.8 mph - N/A   Clear
4:55 PM 68.0 °F 51.8 °F 56% 29.97 in 10.0 mi NW 4.6 mph - N/A   Clear
5:15 PM 66.2 °F 51.8 °F 60% 29.97 in 10.0 mi NNW 6.9 mph - N/A   Clear
5:35 PM 66.2 °F 51.8 °F 60% 29.97 in 10.0 mi NW 4.6 mph - N/A   Clear
5:55 PM 64.4 °F 53.6 °F 68% 29.98 in 10.0 mi WNW 4.6 mph - N/A   Clear
6:15 PM 64.4 °F 53.6 °F 68% 29.97 in 10.0 mi NW 3.5 mph - N/A   Clear
6:35 PM 64.4 °F 53.6 °F 68% 29.97 in 10.0 mi NW 3.5 mph - N/A   Clear
6:55 PM 64.4 °F 51.8 °F 64% 29.97 in 10.0 mi NW 4.6 mph - N/A   Clear
7:15 PM 64.4 °F 53.6 °F 68% 29.97 in 10.0 mi NW 3.5 mph - N/A   Clear
7:35 PM 62.6 °F 53.6 °F 72% 29.97 in 10.0 mi Calm Calm - N/A   Clear
7:55 PM 62.6 °F 53.6 °F 72% 29.97 in 10.0 mi Calm Calm - N/A   Partly Cloudy
8:15 PM 62.6 °F 53.6 °F 72% 29.97 in 10.0 mi Calm Calm - N/A   Clear
8:35 PM 62.6 °F 53.6 °F 72% 29.98 in 10.0 mi NW 3.5 mph - N/A   Partly Cloudy
8:55 PM 62.6 °F 55.4 °F 77% 29.99 in 10.0 mi Calm Calm - N/A   Clear
9:15 PM 62.6 °F 53.6 °F 72% 30.01 in 10.0 mi NW 4.6 mph - N/A   Clear
9:35 PM 62.6 °F 53.6 °F 72% 30.01 in 10.0 mi NNW 4.6 mph - N/A   Scattered Clouds
9:55 PM 62.6 °F 53.6 °F 72% 30.00 in 10.0 mi NNW 5.8 mph - N/A   Partly Cloudy
10:15 PM 60.8 °F 53.6 °F 77% 29.99 in 10.0 mi North 5.8 mph - N/A   Clear
10:35 PM 60.8 °F 53.6 °F 77% 29.99 in 10.0 mi North 6.9 mph - N/A   Clear
10:55 PM 60.8 °F 51.8 °F 72% 30.01 in 10.0 mi North 4.6 mph - N/A   Clear
11:15 PM 60.8 °F 51.8 °F 72% 30.02 in 10.0 mi NNW 5.8 mph - N/A   Clear
11:35 PM 60.8 °F 51.8 °F 72% 30.01 in 10.0 mi North 4.6 mph - N/A   Partly Cloudy
11:55 PM 60.8 °F 51.8 °F 72% 30.00 in 10.0 mi North 5.8 mph - N/A   Clear